Location: *
(37.5724°S, 58.0067°E)
Time: 04:47:06
(UTC+00:00)

Cosmos 1933 Rocket - Pass Details

Date: 22 January 2021
Orbit: 607 x 630 km, 82.5° (Epoch: 06 March)

Event Time Altitude Azimuth Distance (km) Brightness Sun altitude
Rises 18:34:54 0° 171° (S) 2,958 7.8 -27.8°
Reaches altitude 10° 18:37:43 10° 153° (SSE) 2,041 6.6 -28.1°
Enters shadow 18:39:33 17° 131° (SE) 1,623 5.8 -28.3°
